Track STARLINK-2587 now! 10-day predictions STARLINK-2587 is classified as:
1 48399U 21038AY 22183.50269052 .00000176 00000-0 30724-4 0 9996 2 48399 53.0537 264.8972 0001473 62.4947 297.6192 15.06406840 65611